GEFSSGP_con_prob3kmehi_150.txt.gz
EHI
9 5 3 2 1 2 3 4 4 4 6 16 24 25 21 14 9 9 10 19 33 36 31 32 36 33 24 15 9 6 4 3 3 3 3 3 3 3 3 3 3 3 3 3 3 3 3 3 3
5 4 3 1 1 2 3 4 4 6 11 22 30 29 22 15 13 14 16 24 36 37 31 31 36 35 26 16 9 6 4 3 3 3 3 3 3 3 3 3 3 3 3 3 3 3 3 3 3
3 3 3 2 2 3 3 3 5 9 17 28 35 32 22 16 16 18 22 30 37 36 30 31 37 36 27 16 9 5 4 3 3 3 3 3 3 3 3 3 3 3 3 3 3 3 3 3 3
3 3 3 3 3 4 4 4 5 11 20 30 36 31 22 18 21 27 31 34 36 34 30 32 37 34 24 16 10 6 4 3 3 3 3 3 3 3 3 3 3 3 3 3 3 3 3 3 3
1 2 3 3 4 4 5 5 7 12 20 30 33 27 20 22 33 39 38 36 37 36 31 30 33 29 21 15 11 8 4 3 3 3 3 3 3 3 3 3 3 3 3 3 3 3 3 3 3
0 1 2 2 3 3 4 7 12 18 24 28 28 24 19 26 39 44 39 35 37 37 30 26 24 21 18 16 14 10 6 4 3 3 3 3 3 3 3 3 3 3 3 3 3 3 3 3 3
0 0 1 1 1 2 4 7 14 22 27 28 27 24 21 26 37 41 38 35 35 33 28 23 17 14 14 15 15 12 8 6 4 3 3 3 3 3 3 3 3 3 3 3 3 3 3 3 3
0 0 0 0 0 2 4 8 15 24 30 30 28 25 25 30 37 41 41 37 32 27 22 18 14 11 11 12 12 10 8 6 5 4 3 3 3 3 3 3 3 3 3 3 3 3 3 3 3
0 0 0 0 1 3 7 11 18 26 32 32 30 29 32 38 43 46 45 38 29 21 16 13 12 11 10 9 7 5 5 5 5 4 3 3 3 3 3 3 3 3 3 3 3 3 3 3 3
0 0 0 0 1 4 9 13 19 26 31 31 32 35 38 41 45 49 47 37 26 21 16 13 12 11 9 7 4 2 1 3 4 3 3 3 3 3 3 3 3 3 3 3 3 3 3 3 3
0 0 0 1 2 5 10 15 18 22 25 27 32 36 38 39 43 45 41 31 24 22 19 15 11 10 8 7 4 2 1 1 1 3 3 3 3 3 3 3 3 3 3 3 3 3 3 3 3
0 0 1 1 3 6 11 16 20 22 23 27 32 35 35 36 39 38 32 24 19 19 18 14 10 8 7 6 4 2 1 0 1 2 3 3 3 3 3 3 3 3 3 3 3 3 3 3 3
0 0 1 2 3 6 12 19 22 25 28 32 35 33 29 30 33 31 25 18 15 14 14 12 9 7 6 5 3 1 1 0 0 1 2 3 3 3 3 3 3 3 3 3 3 3 3 3 3
0 0 1 1 2 6 12 18 23 28 33 36 34 29 24 23 25 24 19 15 13 13 13 11 9 7 6 5 4 2 1 0 0 0 1 3 3 3 3 3 3 3 3 3 3 3 3 3 3
0 0 0 0 1 4 9 14 20 28 34 34 30 25 21 20 19 18 16 15 15 15 14 12 9 8 7 5 4 4 2 1 0 0 1 2 3 3 3 3 3 3 3 3 3 3 3 3 3
0 0 0 0 0 2 5 10 18 28 34 33 28 24 22 21 18 16 16 16 17 16 16 13 11 9 7 5 4 4 2 1 0 0 0 1 1 2 2 2 3 3 3 3 3 3 3 3 3
0 0 0 0 0 0 3 10 19 28 33 33 29 26 25 23 19 17 16 16 16 16 16 14 11 8 6 5 4 2 1 1 0 0 0 0 0 1 1 1 1 2 2 3 3 3 3 3 3
0 0 0 0 0 1 4 12 21 27 31 31 29 27 26 22 19 17 15 15 14 14 13 12 9 6 4 4 3 1 0 0 0 0 0 0 0 0 0 0 0 1 1 1 2 2 2 3 3
0 0 0 0 0 1 5 12 19 25 29 29 27 27 25 20 18 17 14 12 11 10 9 8 7 5 3 2 2 1 0 0 0 0 0 0 0 0 0 0 0 0 0 0 1 1 1 1 2
0 0 0 0 0 1 4 8 14 22 27 28 27 26 24 20 17 17 13 9 7 7 7 7 6 4 2 1 1 0 0 1 0 0 0 0 0 0 0 0 0 0 0 0 0 0 0 0 1
0 0 0 0 0 1 3 5 9 18 25 27 26 24 22 18 16 14 10 6 5 5 5 6 5 3 1 0 0 0 0 0 0 0 0 0 0 0 0 0 0 0 0 0 0 0 0 0 0
0 0 0 0 0 0 1 2 5 13 22 26 24 22 19 16 14 11 7 4 4 4 4 4 4 2 0 0 0 0 0 0 0 0 0 0 0 0 0 0 0 0 0 0 0 0 0 0 0
0 0 0 0 0 0 0 1 2 8 17 23 23 20 17 15 13 10 6 3 3 3 2 2 1 0 0 0 0 0 0 0 0 0 0 0 0 0 0 0 0 0 0 0 0 0 0 0 0
0 0 0 0 0 0 0 0 1 5 11 18 20 19 16 13 12 9 5 3 3 1 1 1 0 0 0 0 0 0 0 0 0 0 0 0 0 0 0 0 0 0 0 0 0 0 0 0 0
0 0 0 0 0 0 0 0 0 3 7 13 17 19 15 12 11 9 5 3 2 1 0 0 0 0 0 0 0 0 0 0 0 0 0 0 0 0 0 0 0 0 0 0 0 0 0 0 0
0 0 0 0 0 0 0 0 0 2 5 10 14 17 15 11 10 10 6 4 2 1 0 0 0 0 0 0 0 0 0 0 0 0 0 0 0 0 0 0 0 0 0 0 0 0 0 0 0
0 0 0 0 0 0 0 0 0 1 2 6 11 15 15 11 10 10 6 3 3 2 1 0 0 0 0 0 0 0 0 0 0 0 0 0 0 0 0 0 0 0 0 0 0 0 0 0 0
1 0 0 0 0 0 0 1 1 0 0 4 9 14 15 12 10 9 6 3 3 3 1 0 0 0 0 0 0 0 0 0 0 0 0 0 0 0 0 0 0 0 0 0 0 0 0 0 0
2 1 0 0 0 0 0 1 1 0 0 2 8 12 12 12 10 9 6 4 3 3 2 1 0 0 0 0 0 0 0 0 0 0 0 0 0 0 0 0 0 0 0 0 0 0 0 0 0
2 1 0 0 0 0 0 0 1 0 0 2 6 9 10 10 11 10 7 5 3 3 2 1 0 0 0 0 0 0 0 0 0 0 0 0 0 0 0 0 0 0 0 0 0 0 0 0 0

GEFSSGP_con_prob3kmehi_156.txt.gz
EHI
6 2 0 0 0 0 0 0 1 2 3 3 3 3 3 2 1 1 3 9 17 20 15 16 23 28 30 30 27 23 19 15 13 8 5 3 3 3 3 3 3 3 3 3 3 3 3 2 2
4 1 0 0 0 0 0 1 2 3 5 5 5 5 5 4 3 3 4 11 19 21 16 16 24 28 30 30 27 23 18 15 12 8 5 3 3 3 3 3 3 3 3 3 3 3 3 2 2
1 0 0 0 0 0 0 1 4 7 7 7 8 8 7 6 6 5 6 14 22 22 16 18 25 29 30 29 26 22 17 14 12 9 6 4 3 3 3 3 3 3 3 3 3 3 3 3 2
0 0 0 0 1 0 0 2 7 11 11 9 10 11 8 8 9 9 13 19 23 20 16 20 27 30 29 27 24 19 15 13 12 9 6 4 3 3 3 3 3 3 3 3 3 3 3 3 3
0 0 0 0 0 0 0 2 9 14 14 12 13 15 11 10 14 19 22 23 22 18 16 21 29 31 28 25 22 17 13 10 9 7 5 4 3 3 3 3 3 3 3 3 3 3 3 3 3
0 0 0 0 0 0 0 3 9 15 16 13 16 19 15 13 20 26 26 24 21 18 18 22 27 29 26 22 18 14 11 8 6 5 4 3 3 3 3 3 3 3 3 3 3 3 3 3 3
0 0 0 0 0 0 1 4 10 16 17 15 17 20 18 18 25 31 31 28 23 20 20 23 23 21 19 16 12 10 9 7 6 4 3 3 3 3 3 3 3 3 3 3 3 3 3 3 3
0 0 0 0 0 0 1 5 11 17 19 17 16 19 23 28 34 40 42 37 27 19 19 21 20 15 11 9 8 8 8 7 6 4 3 3 3 3 3 3 3 3 3 3 3 3 3 3 3
0 0 0 0 0 1 3 6 10 16 21 20 18 21 31 42 47 48 47 40 28 18 15 16 17 14 9 6 6 7 7 7 6 4 3 3 3 3 3 3 3 3 3 3 3 3 3 3 3
0 0 0 0 1 2 4 6 10 16 20 20 22 30 41 48 48 45 40 33 24 16 12 10 13 13 10 8 8 6 4 5 4 4 3 3 3 3 3 3 3 3 3 2 2 2 2 2 2
0 0 1 1 1 3 4 6 11 15 16 18 25 36 43 44 41 35 29 23 17 12 9 7 8 10 10 11 10 6 3 3 3 3 2 1 1 2 2 2 2 2 1 1 1 1 1 1 1
0 1 2 2 3 4 6 8 11 12 12 18 29 38 39 37 34 29 23 17 12 10 8 7 7 8 10 11 10 8 5 2 1 1 1 0 0 1 1 1 1 1 0 0 0 0 0 0 0
0 1 2 2 3 5 9 12 12 12 16 25 34 38 37 35 32 26 20 16 13 11 9 8 7 8 10 11 10 8 5 2 0 0 0 0 0 0 0 0 0 0 0 0 0 0 0 0 0
1 1 1 1 2 6 10 12 12 15 23 31 35 35 35 33 29 22 17 14 13 11 10 8 8 8 9 9 7 6 4 2 0 0 0 0 0 0 0 0 0 0 0 0 0 0 0 0 0
0 0 0 0 1 4 7 8 10 17 26 30 31 31 31 27 21 16 13 11 11 9 8 8 8 8 7 6 4 4 3 2 0 0 0 0 0 0 0 0 0 0 0 0 0 0 0 0 0
0 0 0 0 0 1 2 3 8 16 23 25 25 25 24 20 14 10 8 8 8 7 8 9 9 8 6 4 2 2 2 1 0 0 0 0 0 0 0 0 0 0 0 0 0 0 0 0 0
0 0 0 0 0 0 0 1 7 15 20 21 21 20 19 16 11 7 6 6 6 6 6 8 9 8 6 3 1 1 1 0 0 0 0 0 0 0 0 0 0 0 0 0 0 0 0 0 0
0 0 0 0 0 0 0 1 6 14 18 18 18 18 18 16 11 8 7 7 6 5 4 5 7 7 5 3 1 0 0 0 0 1 1 0 0 0 0 0 0 0 0 0 0 0 0 0 0
0 0 0 0 0 0 0 2 7 13 16 16 16 17 17 15 12 10 9 9 7 5 3 4 5 6 5 3 2 0 0 0 0 1 1 0 0 0 0 0 0 0 0 0 0 0 0 0 0
0 0 0 0 0 1 1 2 6 10 13 14 14 15 15 13 12 12 12 10 8 6 5 4 4 5 4 2 1 1 1 0 0 0 0 0 0 0 0 0 0 0 0 0 0 0 0 0 0
0 0 0 0 0 1 1 1 3 6 11 13 13 14 14 12 11 13 12 9 8 7 5 4 3 3 2 1 1 2 1 0 0 0 0 0 0 0 0 0 0 0 0 0 0 0 0 0 0
0 0 0 0 0 1 1 0 1 4 8 10 11 13 14 13 11 11 10 8 6 5 4 3 2 1 0 0 1 1 1 0 0 0 0 0 0 0 0 0 0 0 0 0 0 0 0 0 0
0 0 0 0 0 0 0 0 0 2 3 5 9 13 14 13 11 10 9 6 4 3 3 2 1 0 0 0 0 0 0 0 0 0 0 0 0 0 0 0 0 0 0 0 0 0 0 0 0
0 0 0 0 0 0 0 0 0 0 0 3 7 12 13 13 11 9 8 5 3 3 3 2 1 0 0 0 0 0 0 0 0 0 0 0 0 0 0 1 0 0 0 0 0 0 0 0 0
0 0 0 0 0 0 0 0 0 0 0 2 6 10 12 11 10 9 7 4 3 3 3 2 1 0 0 0 0 0 0 0 0 0 0 0 0 0 0 0 0 0 0 0 0 0 0 0 0
0 0 0 0 0 0 0 0 0 0 0 1 4 9 10 9 8 8 6 4 3 3 2 1 0 0 0 0 0 0 0 0 0 0 0 0 0 0 0 0 0 0 0 0 0 0 0 0 0
0 0 0 0 0 0 0 0 0 0 1 1 3 7 8 7 6 6 5 4 3 1 1 0 0 0 0 0 0 0 0 0 0 0 0 0 0 0 0 0 0 0 0 0 0 0 0 0 0
0 0 0 0 0 0 0 0 0 0 1 2 3 4 6 6 5 4 4 3 2 1 0 0 0 0 0 0 0 0 0 0 0 0 0 0 0 0 0 0 0 0 0 0 0 0 0 0 0
0 0 0 0 0 0 0 0 0 0 1 1 1 3 5 5 4 3 3 3 1 0 0 0 0 0 0 0 0 0 0 0 0 0 0 0 0 0 0 0 0 0 0 0 0 0 0 0 0
0 0 0 0 0 0 0 0 0 0 0 0 1 3 5 5 2 2 3 3 1 0 0 0 0 0 0 0 0 0 0 0 0 0 0 0 0 0 0 0 0 0 0 0 0 0 0 0 0

GEFSSGP_con_prob3kmehi_162.txt.gz
EHI
0 0 0 1 1 1 0 0 0 0 0 0 0 0 0 0 0 2 3 4 7 9 9 7 4 2 2 2 3 4 4 3 2 1 0 0 0 0 0 0 0 0 0 0 0 0 0 0 0
0 0 0 0 0 0 0 0 0 0 0 0 0 0 1 1 3 5 6 7 7 8 8 7 6 4 3 2 2 4 4 3 1 0 0 0 0 0 0 0 0 0 0 0 0 0 0 0 0
0 0 0 0 0 0 0 0 1 1 1 0 0 1 2 4 7 9 11 10 8 7 7 8 7 5 3 1 1 3 3 2 1 0 0 0 0 0 0 0 0 0 0 0 0 0 0 0 0
0 0 0 0 0 0 0 0 1 2 1 0 0 2 6 9 11 14 16 12 8 6 7 10 9 5 3 1 1 1 2 2 1 0 0 0 0 0 0 0 0 0 0 0 0 0 0 0 0
0 0 0 0 0 0 0 0 1 1 0 0 1 6 12 16 17 21 21 14 8 6 9 11 9 6 4 3 1 1 2 3 2 0 0 0 0 0 0 0 0 0 0 0 0 0 0 0 0
0 0 0 0 0 0 0 0 0 0 0 0 1 8 18 23 26 29 25 14 7 6 9 10 8 6 5 5 4 3 3 3 1 0 0 0 0 0 0 0 0 0 0 1 0 0 0 0 0
0 0 0 0 0 0 0 0 0 0 0 0 1 7 19 28 34 37 30 17 8 6 8 8 5 3 3 4 4 4 3 1 0 0 0 0 0 0 0 0 0 0 0 0 0 0 0 0 0
0 0 0 0 0 0 0 0 0 0 1 1 2 9 23 36 42 45 40 27 17 11 8 6 5 2 2 1 2 2 2 1 0 0 0 0 0 0 0 0 0 0 0 0 0 0 0 0 0
0 0 0 0 0 0 0 0 1 2 4 4 7 16 32 45 50 51 48 39 28 18 12 9 7 4 2 0 1 2 2 2 1 0 0 0 0 0 0 0 0 0 0 0 0 0 0 0 0
0 0 0 0 0 1 1 1 1 4 5 6 13 27 42 50 52 51 47 42 35 26 17 12 8 5 2 1 2 4 4 3 2 1 1 0 0 0 0 1 0 0 0 0 0 0 0 0 0
0 0 0 0 0 1 2 1 1 2 3 5 16 34 47 49 48 46 42 39 35 28 20 14 10 6 3 3 6 8 8 5 3 2 2 2 1 0 0 1 0 0 1 1 0 0 0 0 0
0 0 0 0 0 1 1 1 0 0 1 5 17 35 45 44 41 40 38 36 31 25 19 15 13 9 7 9 10 12 12 8 5 3 3 3 2 1 2 2 1 1 1 1 0 0 0 0 0
0 0 0 0 0 1 0 0 0 1 3 8 20 33 39 38 37 36 36 33 28 23 19 17 14 11 11 14 14 13 13 10 8 5 2 1 1 2 4 4 2 1 1 1 0 0 0 0 0
0 0 0 0 0 0 0 0 1 4 7 12 22 30 32 32 33 34 34 32 27 22 19 15 12 10 11 12 14 14 12 10 9 6 2 1 1 3 4 4 2 1 0 0 1 1 1 0 0
0 0 0 0 0 0 0 0 2 7 10 14 21 26 28 28 28 29 30 28 24 19 16 13 10 10 10 9 10 11 10 8 8 5 3 2 2 3 3 2 1 1 1 1 1 2 2 1 0
0 0 0 0 0 0 0 1 4 8 11 13 19 25 27 27 26 25 24 22 19 16 13 10 9 9 9 10 9 8 8 8 6 5 4 4 4 3 2 1 1 1 1 1 1 1 1 1 0
0 0 0 0 0 0 0 1 4 8 9 12 18 23 26 27 26 24 22 18 15 14 13 11 8 8 9 11 10 9 8 7 6 5 4 4 4 3 2 2 2 2 2 1 0 0 0 0 0
0 0 0 0 0 0 0 0 3 8 10 12 16 21 24 25 24 22 20 17 14 14 15 14 11 11 12 12 12 11 8 5 5 5 4 3 2 2 1 2 3 3 2 1 0 0 0 0 0
0 0 0 0 0 0 0 0 4 10 12 13 16 21 23 24 23 21 18 15 13 13 16 17 16 16 16 15 14 13 8 5 5 4 3 2 1 0 1 3 4 3 1 1 0 0 0 0 0
0 0 0 0 0 0 0 0 4 10 13 13 17 22 24 24 24 22 18 15 13 14 16 18 18 18 17 16 14 12 9 6 4 4 3 3 1 1 2 3 3 2 1 0 0 0 0 0 0
0 0 0 0 0 0 0 1 4 7 10 12 17 23 25 24 24 21 18 16 15 16 15 16 18 17 16 13 10 9 9 6 3 3 4 4 1 1 3 3 2 1 0 0 0 0 0 0 0
0 0 0 0 0 0 0 1 3 6 7 11 17 22 23 23 22 21 19 17 16 16 16 16 18 17 14 11 7 6 5 3 2 3 4 3 1 1 2 2 1 0 0 0 0 0 0 0 0
0 0 0 0 0 0 0 0 2 5 6 9 16 21 22 22 22 20 19 18 16 15 15 16 17 17 14 10 7 6 3 1 2 4 4 3 2 2 2 2 1 0 0 0 0 0 0 0 0
0 0 0 0 0 0 0 0 1 2 3 5 11 18 22 23 21 20 20 19 16 14 13 14 15 16 14 10 8 6 3 1 2 4 4 3 3 3 3 2 2 1 0 0 0 0 0 0 0
0 0 0 0 0 0 0 0 0 0 1 1 5 13 22 24 22 20 21 21 17 14 12 12 13 14 11 7 5 3 2 1 1 3 3 3 3 3 3 2 2 1 0 0 0 0 0 0 0
0 0 0 0 0 0 0 0 0 0 0 0 2 8 18 23 22 20 22 22 19 15 12 11 11 12 10 6 3 1 1 1 1 1 2 1 1 2 3 3 2 1 0 0 0 0 0 0 0
0 0 0 0 0 0 0 0 0 0 0 0 1 4 11 18 19 19 21 22 20 16 13 11 10 10 9 6 4 1 0 1 1 0 0 0 0 1 2 2 2 1 0 0 0 0 0 0 0
0 0 0 0 0 0 0 0 0 0 0 0 0 2 7 14 18 20 20 20 18 15 12 10 8 8 6 4 2 1 0 1 0 0 0 0 0 0 1 1 1 0 0 0 0 0 0 0 0
0 0 0 0 0 0 0 0 0 0 1 0 0 2 5 12 17 18 18 17 16 14 11 8 7 5 3 1 1 0 1 1 0 0 0 0 0 0 0 0 0 0 0 0 0 0 0 0 0
0 0 0 0 0 0 0 0 0 0 1 0 1 2 5 10 15 16 15 15 16 14 12 9 6 4 2 0 0 1 1 1 0 0 0 0 0 0 0 0 0 0 0 0 0 0 0 0 0

GEFSSGP_con_prob3kmehi_168.txt.gz
EHI
1 5 11 12 7 3 1 0 0 1 0 0 1 4 7 9 8 9 17 33 48 45 37 36 31 18 6 3 2 1 0 0 0 0 0 0 0 0 0 0 0 0 0 0 1 2 2 1 0
2 6 9 8 6 3 1 0 1 2 1 0 2 5 8 8 6 10 20 36 46 43 37 38 35 21 8 3 3 1 0 0 0 0 0 0 0 0 0 0 0 0 0 0 0 1 1 0 0
4 6 5 4 3 2 0 1 2 2 1 1 4 8 11 9 9 17 28 37 42 41 42 46 41 26 12 6 4 1 0 0 0 0 0 0 0 0 0 0 0 0 0 0 0 0 0 0 0
5 5 3 2 1 0 0 0 1 1 1 2 6 13 17 16 18 26 31 35 41 47 50 52 46 31 17 9 5 1 0 0 0 0 0 0 0 0 0 0 0 0 0 0 0 0 0 0 0
3 3 2 1 0 0 0 0 0 0 1 2 9 22 27 23 24 27 27 34 49 56 53 51 47 35 20 10 4 1 0 0 0 0 0 0 0 0 0 0 0 0 0 0 0 0 0 0 0
1 1 1 0 0 0 0 0 1 1 1 2 11 29 37 32 28 27 27 39 57 62 52 45 41 30 17 9 3 1 0 0 0 0 0 0 0 0 0 0 0 0 0 0 0 0 0 0 0
0 0 0 0 0 0 0 0 1 2 1 1 10 30 44 43 38 34 37 49 64 62 46 33 26 20 11 6 3 1 0 0 0 0 0 0 0 0 0 0 0 0 0 0 0 0 0 0 0
0 0 0 0 0 0 0 0 1 1 1 2 9 27 48 52 47 46 51 61 69 59 39 24 17 11 7 4 3 1 0 0 0 0 0 0 0 0 0 0 0 0 0 0 0 0 0 0 0
0 0 0 0 0 0 0 0 0 1 3 8 17 34 51 54 53 56 62 67 67 55 39 28 19 11 5 3 2 1 1 0 0 0 0 0 0 0 0 0 0 0 0 0 0 0 0 0 0
0 0 0 0 0 0 0 0 1 1 5 15 30 47 56 57 57 60 63 64 63 56 47 38 27 15 7 4 3 2 1 0 0 0 0 0 0 1 1 1 0 0 0 0 0 0 0 0 1
0 0 0 0 0 0 0 0 1 2 8 20 37 52 60 59 57 57 58 61 62 59 54 46 36 26 19 14 9 4 2 1 0 0 0 0 1 2 4 2 0 0 0 0 0 1 1 1 1
0 0 0 0 0 0 0 1 3 5 11 23 37 51 57 56 51 49 53 58 60 59 55 50 46 43 39 30 18 8 4 2 1 2 2 2 3 6 7 5 2 1 0 0 0 1 1 2 1
0 0 0 0 0 0 0 2 4 7 12 21 35 46 49 48 44 43 48 54 58 58 56 54 55 55 52 43 29 17 10 6 6 7 6 7 11 14 13 8 3 1 1 1 1 1 1 2 2
0 0 0 0 0 0 0 1 3 6 9 17 30 39 42 44 42 41 46 53 57 57 56 55 54 55 53 47 39 28 18 13 12 13 12 14 21 24 20 11 5 3 3 3 3 1 1 2 2
0 0 0 0 0 0 1 2 4 6 9 15 24 33 40 43 42 42 48 54 56 55 53 48 46 48 49 47 43 33 24 17 19 24 23 22 26 26 20 12 7 7 7 5 4 3 1 1 1
0 0 0 0 0 0 1 3 6 8 10 13 21 31 41 43 41 43 50 53 53 53 51 45 41 43 45 45 43 38 30 25 29 36 33 26 24 22 16 13 11 10 8 5 4 3 2 2 1
0 0 0 0 0 0 1 5 8 8 9 13 21 31 40 43 42 45 50 50 50 53 53 48 43 43 44 44 45 46 43 39 40 43 37 27 21 17 14 13 13 11 9 7 5 4 3 2 1
0 0 0 0 0 0 2 7 10 9 9 14 23 32 39 41 44 48 50 49 50 53 54 50 47 46 44 44 47 50 50 46 42 40 34 24 17 14 13 12 11 10 9 8 7 5 3 2 1
0 0 0 0 0 0 2 6 10 10 10 16 27 35 39 43 49 53 53 51 52 53 51 48 48 48 46 45 47 50 50 46 40 34 28 20 14 11 10 10 10 9 9 8 6 4 3 2 1
0 0 0 0 0 0 1 3 8 10 12 19 29 36 40 46 54 58 58 56 54 52 48 46 48 50 49 48 46 46 46 43 37 30 23 19 14 9 8 10 10 8 7 5 4 3 2 2 2
0 0 0 0 0 0 0 2 6 9 12 17 26 32 38 46 55 61 63 59 53 50 46 46 50 54 52 49 43 39 38 37 34 29 23 18 14 11 11 11 9 9 8 6 3 3 2 2 2
0 0 0 0 0 0 0 2 6 8 9 14 23 29 35 44 55 61 63 59 51 45 42 44 50 52 49 45 41 36 31 30 29 27 24 20 15 12 12 10 8 9 9 7 3 2 2 2 2
0 0 0 0 0 0 0 2 6 7 7 11 20 28 36 45 54 61 63 59 49 41 37 39 44 45 41 39 39 37 31 28 27 25 23 20 14 11 10 9 7 7 8 6 3 2 3 2 2
0 0 0 0 0 0 0 1 4 5 5 8 17 28 37 45 54 61 64 60 50 39 34 35 40 40 35 33 36 37 33 29 25 21 18 16 12 8 8 8 6 5 4 4 3 3 3 1 1
0 0 0 0 0 0 0 0 1 2 3 6 14 27 36 45 53 60 64 61 51 39 33 34 37 36 31 28 30 31 30 26 21 16 13 11 8 6 6 7 6 4 3 3 4 3 1 0 0
0 0 0 0 0 0 0 0 0 0 1 6 15 27 34 41 50 57 61 59 49 40 35 34 33 31 28 26 25 26 24 20 16 12 11 9 6 6 7 7 6 5 3 3 4 2 0 0 0
0 0 0 0 0 0 0 1 1 1 1 7 17 25 31 37 46 54 57 55 47 41 38 34 32 30 26 24 23 22 20 17 14 10 9 9 8 7 8 7 5 4 3 4 4 1 0 0 0
0 0 0 0 0 0 0 1 1 1 1 8 15 20 25 32 41 49 51 49 45 40 37 33 31 28 24 22 21 20 18 17 16 10 8 10 9 8 8 6 4 4 3 3 3 1 0 0 0
0 0 0 0 0 0 0 0 1 1 2 7 11 15 19 26 36 44 45 44 41 38 34 30 27 24 20 19 19 18 16 16 15 10 9 11 9 7 7 5 4 3 1 1 1 1 0 0 0
0 0 0 0 0 0 0 1 2 2 3 6 10 12 15 22 35 43 43 41 39 36 33 28 24 21 18 17 18 17 16 16 14 11 10 11 10 6 5 5 3 1 0 0 1 0 0 0 0

GEFSSGP_con_prob3kmehi_174.txt.gz
EHI
1 1 0 0 0 0 0 1 3 4 4 5 7 10 9 6 2 1 1 11 26 30 23 24 29 26 16 10 5 2 1 1 0 0 0 0 0 0 0 0 0 0 0 0 0 1 2 2 1
1 0 0 0 0 0 0 1 3 6 8 11 13 14 11 7 4 2 4 15 29 31 25 26 31 27 18 11 7 4 2 0 0 0 0 0 0 0 0 0 0 0 0 0 1 1 2 2 1
0 0 0 0 0 0 0 2 5 9 14 20 22 18 12 8 6 7 14 26 33 32 28 31 35 30 20 14 9 5 2 1 0 0 0 0 0 0 0 0 0 0 0 0 1 2 2 1 0
0 0 0 0 0 0 0 2 7 13 18 26 29 22 14 15 20 25 31 36 36 31 28 34 38 32 22 17 12 6 2 1 0 0 0 0 0 0 0 0 0 0 0 0 1 1 1 0 0
0 0 0 0 0 0 0 3 9 16 24 34 38 27 18 27 44 49 45 42 39 34 30 33 37 32 24 18 13 7 3 0 0 0 0 0 0 0 0 0 0 0 0 0 0 0 0 0 0
0 0 0 0 0 0 1 4 10 20 31 41 43 32 23 35 54 59 51 45 43 39 34 30 29 27 23 19 15 10 5 1 0 0 0 0 0 0 0 0 0 0 0 0 0 0 0 0 0
0 0 0 0 0 0 2 5 11 21 34 42 42 33 27 37 53 58 53 47 44 42 37 26 19 18 18 16 13 10 6 2 0 0 0 0 0 0 0 0 0 0 0 0 0 0 0 0 0
0 0 0 0 0 0 2 5 10 23 37 42 35 28 30 44 59 63 56 48 43 39 32 23 15 12 11 9 8 7 5 2 0 0 0 0 0 0 0 0 0 0 0 0 0 0 0 0 0
0 0 0 0 0 0 0 3 11 27 43 44 33 29 40 58 70 70 61 49 41 34 27 21 17 11 6 4 4 4 3 1 0 0 0 0 0 0 0 0 0 0 0 0 0 1 1 1 0
0 0 0 0 0 0 0 2 11 26 41 44 39 41 53 67 74 72 61 46 35 29 24 19 15 10 5 3 2 2 1 1 0 0 0 0 0 0 0 0 0 0 0 0 0 1 2 1 1
0 0 0 0 0 0 0 2 8 20 31 38 42 47 55 64 69 70 59 42 32 27 21 16 11 7 3 2 1 1 0 0 0 0 0 0 0 0 0 0 0 0 0 0 0 1 1 1 0
0 0 0 0 0 0 0 2 8 16 25 35 43 46 49 54 60 62 54 40 32 27 20 14 10 6 3 1 0 0 0 0 0 0 0 0 0 0 0 0 0 0 0 0 0 0 0 0 0
0 0 0 0 0 0 0 3 10 18 28 40 49 48 47 49 52 54 51 42 34 29 22 16 11 7 3 1 0 0 0 0 0 0 0 0 0 0 0 0 0 0 0 0 0 0 0 0 0
0 0 1 0 0 0 1 3 10 20 32 44 50 48 47 50 52 52 51 47 39 32 26 21 15 8 3 1 0 0 1 0 0 0 0 0 0 0 0 0 0 0 0 0 0 0 0 0 0
0 0 0 0 0 0 1 2 8 19 32 41 46 45 45 49 50 52 54 52 46 38 33 28 20 12 5 1 0 0 1 0 0 0 0 0 0 0 0 0 0 0 0 0 0 0 0 0 0
0 0 0 0 0 0 1 2 7 18 30 38 41 42 43 45 47 50 55 55 50 44 38 33 27 18 9 4 1 1 1 0 0 0 0 0 0 0 0 0 0 0 0 0 0 0 0 0 0
0 0 0 0 0 0 1 3 7 18 29 35 38 39 42 45 47 50 54 53 49 45 41 36 31 24 14 8 4 2 1 0 0 0 0 0 0 0 0 0 0 0 0 0 0 0 0 0 0
0 0 0 0 0 1 3 5 8 17 28 34 37 39 42 47 50 52 52 49 46 44 40 35 30 24 18 13 9 6 2 1 1 0 0 0 0 0 0 0 0 0 0 0 0 0 0 0 0
0 0 0 0 0 1 3 6 9 15 23 30 34 38 42 47 51 52 50 46 44 42 37 30 25 22 20 17 13 9 4 2 1 1 0 0 1 0 0 0 0 0 0 0 0 0 0 0 0
0 0 0 0 0 1 3 7 9 11 17 23 29 35 40 45 49 52 51 48 44 40 34 27 23 22 21 18 13 8 4 2 1 1 0 0 0 0 0 0 0 0 0 0 0 0 0 0 0
0 0 0 0 0 0 2 4 6 7 11 18 24 30 34 39 44 49 51 49 45 41 35 28 24 24 22 18 13 8 5 2 1 0 0 0 0 0 0 0 0 0 0 0 0 0 0 0 0
0 0 0 0 0 0 0 1 2 4 8 14 21 25 29 35 40 45 49 49 45 42 37 31 28 28 24 18 14 10 6 3 1 0 0 0 0 0 0 0 0 0 0 0 0 0 0 0 0
0 0 0 0 0 0 0 0 1 3 6 11 16 20 24 30 36 42 46 46 44 42 39 34 31 29 25 18 13 10 6 3 1 1 0 0 0 0 0 0 0 0 0 0 0 0 0 0 0
0 0 0 0 0 0 0 0 0 1 3 7 11 14 17 24 32 37 41 42 42 42 40 35 30 27 23 16 10 7 5 3 2 2 1 1 0 0 0 0 0 0 0 0 0 0 0 0 0
0 0 0 0 0 0 0 0 0 0 1 4 8 11 13 18 27 34 38 40 41 41 39 34 28 24 21 15 10 7 5 4 4 3 3 2 1 0 0 0 0 0 0 0 0 0 0 0 0
0 0 0 0 0 0 0 0 0 0 1 4 8 11 13 17 26 34 37 37 38 38 36 31 27 24 20 16 11 7 6 4 3 3 3 2 1 0 0 0 0 0 0 0 0 0 0 0 0
0 0 0 0 0 0 0 0 0 0 2 6 9 11 12 16 24 32 34 33 33 33 31 28 25 23 20 17 13 9 7 5 3 2 3 2 1 1 0 0 0 0 0 0 0 0 0 0 0
0 0 0 0 0 0 0 0 0 1 3 5 8 9 10 14 23 29 30 28 28 28 27 25 23 22 20 18 15 11 7 5 3 2 1 2 2 2 2 1 1 0 0 0 0 0 0 0 0
0 0 0 0 0 0 0 0 0 0 1 3 5 6 8 13 20 24 23 22 24 25 26 24 22 20 20 18 16 12 8 5 3 2 1 1 2 2 2 2 1 0 0 0 0 0 0 0 0
0 0 0 0 0 0 0 0 0 0 0 1 3 6 8 12 17 18 18 18 22 24 25 24 21 19 19 18 16 12 9 6 4 2 1 0 1 1 1 1 0 0 0 0 0 0 0 0 0

GEFSSGP_con_prob3kmehi_180.txt.gz
EHI
0 0 0 0 0 0 0 0 0 0 0 0 1 2 2 2 1 0 0 4 10 13 12 13 15 15 15 14 13 12 8 3 1 0 0 0 0 0 0 0 0 0 0 0 0 1 2 2 1
0 0 0 0 0 0 0 0 0 0 0 0 2 4 4 3 1 0 1 4 10 12 11 13 16 17 16 15 14 12 7 2 0 0 0 0 0 0 0 0 0 0 0 0 0 1 1 1 1
0 0 0 0 0 0 0 0 0 0 0 1 3 5 6 4 1 0 2 6 10 11 11 15 19 21 19 16 14 11 6 1 0 0 0 0 0 0 0 0 0 0 0 0 0 0 1 1 2
0 0 0 0 0 0 0 0 1 2 1 2 5 6 5 3 1 2 4 9 11 10 10 14 20 22 19 16 14 10 5 1 0 0 0 0 0 0 0 0 0 0 0 0 0 1 2 2 2
0 0 0 0 0 0 0 1 2 3 3 5 8 8 6 5 6 8 9 11 13 12 9 11 18 20 16 14 12 9 5 2 1 0 0 0 0 0 0 0 0 0 0 0 1 2 2 1 1
0 0 0 0 0 0 0 1 3 4 5 7 11 12 9 10 14 16 14 12 15 15 11 10 14 15 14 12 10 8 6 3 1 0 0 0 0 0 0 0 0 0 0 1 2 2 1 0 0
0 0 0 0 0 0 1 2 4 6 7 10 14 16 15 17 20 21 17 14 15 17 14 12 11 12 11 10 9 8 6 4 1 0 0 0 0 0 0 0 0 0 0 1 1 1 0 0 0
0 0 0 0 0 0 1 3 5 8 10 11 14 17 21 25 28 27 24 19 16 15 14 13 12 11 9 8 7 8 7 4 2 0 0 0 0 0 0 0 0 0 0 0 0 0 0 0 0
0 0 0 0 0 0 1 2 4 8 12 13 15 22 32 41 43 40 33 25 18 15 13 12 11 10 8 8 7 7 6 4 2 0 0 0 0 0 0 0 0 0 0 0 0 0 0 0 0
0 0 0 0 0 0 0 1 2 7 12 15 23 37 52 57 51 44 35 25 18 14 12 10 8 7 7 7 7 5 4 3 1 0 0 0 0 0 0 0 0 0 0 0 0 0 0 0 0
0 0 0 0 0 0 0 0 3 7 10 17 34 55 67 62 48 36 26 19 15 13 11 8 6 5 6 6 6 5 3 3 2 0 0 0 0 0 0 0 0 0 0 0 0 0 0 0 0
0 0 0 0 0 0 0 2 4 6 10 21 43 62 67 57 41 26 18 14 13 13 11 8 6 6 5 5 5 5 4 2 1 0 0 0 0 0 0 0 0 0 0 0 0 0 0 0 0
0 0 0 0 0 0 0 2 4 7 14 30 47 57 58 50 36 23 17 16 14 12 10 8 7 6 5 4 3 3 3 1 0 0 0 0 0 0 0 0 0 0 0 0 0 0 0 0 0
0 0 0 0 0 0 0 1 3 8 23 39 45 47 47 44 33 23 20 19 16 12 9 8 7 6 4 2 1 1 1 0 0 0 0 1 0 0 0 0 0 0 0 0 0 0 0 0 0
0 0 0 0 0 0 0 0 2 12 30 41 41 40 39 37 31 25 24 23 18 12 8 7 6 4 1 1 0 0 0 0 0 0 0 0 0 0 0 0 0 0 0 0 0 0 0 0 0
0 0 0 0 0 0 0 0 4 17 32 36 35 35 34 32 29 27 26 24 19 13 9 7 6 3 0 0 0 0 0 0 0 0 0 0 0 0 0 0 0 0 0 0 0 0 0 0 0
0 0 0 0 0 0 0 0 5 18 30 32 29 29 30 29 27 27 29 26 20 14 10 8 7 4 1 0 0 0 0 0 0 0 0 0 0 0 0 0 0 0 0 0 0 0 0 0 0
0 0 0 0 0 0 0 0 5 15 25 28 27 26 26 24 23 26 30 29 23 15 10 9 9 6 2 1 1 0 0 0 0 0 0 0 0 0 0 0 0 0 0 0 0 0 0 0 0
0 0 0 0 0 0 0 0 4 11 18 24 28 28 24 21 20 24 30 32 27 17 12 11 10 8 4 2 1 0 0 0 0 0 0 0 0 0 0 0 0 0 0 0 0 0 0 0 0
0 0 0 0 0 0 0 0 2 7 11 16 23 26 23 20 19 23 29 33 29 22 17 14 12 9 6 3 1 0 0 0 0 0 0 0 0 0 0 0 0 0 0 0 0 0 0 0 0
0 0 0 0 0 0 0 0 1 3 6 8 13 17 17 17 17 22 29 33 31 29 24 19 14 10 7 5 3 2 1 0 0 0 0 0 0 0 0 0 0 0 0 0 0 0 0 0 0
0 0 0 0 0 0 0 0 0 1 2 3 4 8 11 12 15 20 29 33 33 33 30 22 16 13 10 7 6 5 3 1 0 0 0 0 0 0 0 0 0 0 0 0 0 0 0 0 0
0 0 0 0 0 0 0 0 0 0 0 0 1 4 7 9 14 20 26 30 32 33 30 23 17 16 13 9 7 6 4 2 1 0 0 0 0 0 0 0 0 0 0 0 0 0 0 0 0
0 0 0 0 0 0 0 0 0 0 0 0 1 3 5 8 14 20 23 26 29 31 28 22 18 17 14 10 7 5 4 3 1 1 0 0 0 0 0 0 0 0 0 0 0 0 0 0 0
0 0 0 0 0 0 0 0 0 0 0 0 0 3 6 9 13 18 21 24 28 28 25 21 19 18 15 10 7 5 4 4 3 2 1 0 0 0 0 0 0 0 0 0 0 0 0 0 0
0 0 0 0 0 0 0 0 0 0 0 0 2 4 7 9 11 14 18 22 25 25 23 20 18 17 15 11 7 5 4 5 5 4 2 1 1 0 0 0 0 0 0 0 0 0 0 0 0
0 0 0 0 0 0 0 0 0 0 0 1 3 4 5 7 9 11 14 17 20 21 20 19 17 15 14 11 7 5 5 6 6 4 3 2 1 1 0 0 0 0 0 0 0 0 0 0 0
0 0 0 0 0 0 0 0 0 0 0 1 2 3 2 3 5 7 10 12 14 17 19 18 15 12 11 9 7 6 6 6 6 5 3 2 1 1 0 0 0 0 0 0 0 0 0 0 0
0 0 0 0 0 0 0 0 0 0 0 0 1 1 1 1 2 4 6 9 12 15 18 18 15 12 9 8 7 7 6 6 5 5 4 2 1 0 0 0 0 0 0 0 0 0 0 0 0
0 0 0 0 0 0 0 0 0 0 0 0 0 0 1 0 0 2 4 7 12 15 17 18 16 14 11 9 8 7 6 6 5 4 4 2 1 0 0 0 0 0 0 0 0 0 0 0 0

GEFSSGP_con_prob3kmehi_186.txt.gz
EHI
0 0 0 1 1 1 0 0 0 0 0 0 0 0 0 1 1 0 0 1 2 3 2 1 0 1 1 1 1 1 0 0 0 0 0 0 0 0 0 0 0 0 0 0 0 0 0 0 0
0 0 0 0 0 0 0 0 0 0 0 0 0 0 1 2 2 1 0 1 2 3 3 1 0 0 1 1 1 0 0 0 0 0 0 0 0 0 0 0 0 0 0 0 0 0 0 0 0
0 0 0 0 0 0 0 0 0 0 0 0 0 1 2 3 3 2 2 1 2 3 3 3 2 1 2 2 2 1 0 0 0 0 0 0 0 0 0 0 0 0 0 0 0 0 0 0 0
0 0 0 0 0 0 0 0 0 0 0 0 1 2 4 4 5 5 3 2 2 2 4 6 5 3 3 3 3 2 1 0 0 0 0 0 0 0 0 0 0 0 0 0 0 0 0 0 0
0 0 0 0 0 0 0 0 0 0 0 0 1 3 5 6 7 6 4 3 2 1 4 8 6 3 3 3 3 2 1 0 0 0 0 0 0 0 0 0 0 1 1 1 0 0 0 0 0
0 0 0 0 0 0 0 0 0 0 0 0 1 3 8 12 12 7 4 2 1 2 6 9 6 3 2 3 3 2 1 0 0 0 0 0 1 1 1 1 0 1 1 1 0 0 0 0 0
0 0 0 0 0 0 0 0 0 0 0 1 1 5 16 26 22 12 5 2 1 2 6 8 6 1 1 1 2 1 0 0 0 0 0 0 1 1 1 1 0 0 0 0 0 0 0 0 0
0 0 0 0 0 0 0 0 0 0 1 2 3 9 26 42 39 23 12 5 3 2 4 6 4 1 0 0 0 0 0 0 0 0 0 0 0 1 1 0 0 0 0 0 0 1 0 0 0
0 0 0 0 0 0 0 0 0 0 1 4 9 18 40 59 57 41 26 15 9 6 6 6 4 2 1 1 1 0 0 0 0 0 0 0 0 0 0 0 0 0 0 0 0 0 0 0 0
0 0 0 0 0 0 0 0 0 0 2 7 17 35 57 70 67 53 37 25 16 11 10 8 5 4 3 2 2 1 0 0 0 0 0 0 0 0 0 0 0 0 0 0 0 0 0 0 0
0 0 0 0 0 0 0 0 0 0 2 8 24 50 69 75 69 54 36 25 19 15 13 10 8 7 6 4 2 1 1 1 0 0 0 0 1 1 1 0 0 0 0 0 0 0 0 0 0
0 0 0 0 0 0 0 0 0 0 1 6 24 53 71 72 64 47 31 23 19 18 16 14 11 10 7 4 3 2 2 2 1 1 1 1 2 2 1 1 1 0 0 0 0 0 0 0 0
0 0 0 0 0 0 0 0 0 0 1 6 22 47 62 63 53 40 29 25 23 22 19 18 15 12 8 5 3 3 2 2 2 2 1 1 2 3 3 2 2 1 0 0 0 0 0 0 0
0 0 0 0 0 0 0 0 0 1 3 9 20 35 45 47 43 35 29 26 26 24 22 20 18 14 9 5 3 2 1 1 1 1 0 0 1 2 2 2 2 1 0 0 0 0 0 0 0
0 0 0 0 0 0 0 0 1 3 6 10 16 25 31 33 33 31 28 26 25 24 23 21 18 14 9 5 3 1 0 0 0 0 0 0 0 1 1 1 1 0 0 0 0 0 0 0 0
0 0 0 0 0 0 0 1 2 4 7 10 15 22 26 27 26 25 24 24 23 24 23 20 16 11 9 7 5 2 1 0 0 1 1 1 0 0 0 0 0 0 0 0 0 0 1 1 1
0 0 0 0 0 0 0 1 2 3 5 9 15 22 27 27 23 23 24 22 22 24 24 21 17 12 10 10 9 5 3 2 1 2 2 1 0 0 0 0 0 0 0 0 0 0 1 2 2
0 0 0 0 0 0 0 1 3 4 3 6 14 23 29 28 25 26 27 25 23 24 25 23 19 16 14 14 13 9 6 5 4 2 1 1 0 0 0 0 0 0 0 0 0 0 0 1 1
0 0 0 0 0 0 0 1 3 6 5 4 11 22 28 27 26 29 31 28 25 26 28 27 24 20 18 18 17 13 10 8 6 3 1 0 0 0 0 0 0 0 0 0 0 0 0 0 0
0 0 0 0 0 0 0 0 2 5 6 4 7 16 21 22 25 31 34 31 28 29 31 31 30 26 22 19 17 16 14 10 7 5 2 0 0 0 0 0 0 0 0 0 0 0 0 0 0
0 0 0 0 0 0 0 0 1 3 4 3 3 8 12 16 25 33 36 33 31 33 35 34 34 32 26 21 17 17 16 11 7 6 4 2 2 1 1 1 1 1 0 1 1 0 0 0 0
0 0 0 0 0 0 0 0 0 1 2 2 2 4 8 12 21 30 33 34 34 36 38 38 38 36 32 26 21 18 15 9 6 7 7 6 5 4 3 3 3 2 1 2 2 1 0 0 0
0 0 0 0 0 0 0 0 0 0 1 2 3 4 6 9 16 22 26 29 31 33 36 39 39 38 36 31 27 21 14 8 6 7 8 8 7 6 5 5 5 3 2 1 2 1 0 0 0
0 0 0 0 0 0 0 0 0 1 1 3 5 4 4 7 12 17 20 25 29 31 34 37 38 37 36 33 30 24 16 11 8 8 9 7 6 7 7 6 5 4 2 1 1 1 0 0 0
0 0 0 0 0 0 0 0 1 1 2 2 4 4 4 6 11 16 19 24 29 33 35 35 35 34 33 33 31 26 20 15 11 10 10 9 9 9 8 7 6 5 3 1 0 0 0 0 0
0 0 0 0 0 0 0 1 1 1 1 1 3 5 7 9 12 16 18 22 28 33 33 33 32 31 31 32 32 29 23 17 13 12 11 12 11 10 9 8 7 7 5 2 1 1 0 0 0
0 0 0 0 0 0 0 1 1 1 0 1 3 6 11 14 15 15 15 18 25 31 32 31 31 32 31 30 30 29 25 20 18 15 12 11 10 9 9 9 7 6 5 4 3 2 1 0 0
0 0 0 0 0 0 0 0 1 1 0 0 2 7 13 17 17 15 13 16 23 28 31 31 31 33 31 27 26 27 27 25 23 19 16 13 11 11 11 10 7 6 6 6 5 3 1 0 0
0 0 0 0 0 0 0 0 1 1 1 0 1 6 12 16 17 15 12 15 20 25 28 29 29 30 28 24 23 25 27 27 25 22 18 16 15 14 13 11 8 6 6 7 6 3 1 0 0
0 0 0 0 0 0 0 1 2 2 1 0 1 5 11 14 15 13 11 13 18 22 26 27 26 26 26 24 23 25 27 27 25 22 19 17 16 14 13 11 8 7 6 7 6 5 3 1 0

GEFSSGP_con_prob3kmehi_192.txt.gz
EHI
2 4 8 10 8 3 1 0 0 0 0 0 0 1 4 5 4 7 17 27 26 14 5 2 2 1 0 0 0 0 0 0 0 0 0 0 0 0 0 0 0 0 0 0 0 1 2 3 3
2 6 7 7 5 2 0 0 0 0 0 0 0 2 5 5 5 10 20 27 22 11 4 3 2 1 0 0 0 0 0 0 0 0 0 0 0 0 0 0 0 0 0 0 0 1 2 2 2
3 5 5 3 1 0 0 0 0 0 0 0 1 3 5 4 6 14 21 22 17 10 7 6 4 1 0 0 0 0 0 0 0 0 0 0 0 0 0 0 0 0 0 0 0 0 1 1 1
5 4 3 1 0 0 0 1 1 0 0 1 3 5 4 5 11 17 17 16 15 13 10 8 5 2 0 0 0 0 0 0 0 0 0 0 0 0 0 0 0 0 0 0 0 0 0 0 0
6 3 1 0 0 0 0 1 1 1 1 2 7 9 6 8 15 15 12 15 20 17 11 8 5 3 1 0 0 0 0 0 0 0 0 0 0 0 0 0 0 0 0 0 0 0 0 0 0
3 1 0 0 0 0 0 0 1 1 1 3 9 13 11 11 12 10 9 17 26 23 14 9 7 4 1 0 0 0 0 0 0 0 0 0 0 0 0 0 0 0 0 0 0 0 0 0 0
1 1 1 0 0 0 0 0 1 1 2 3 8 15 17 16 13 9 12 23 32 30 19 10 6 3 1 0 0 0 0 0 0 0 0 0 0 0 0 0 0 0 0 0 0 0 0 0 0
1 1 2 1 0 0 0 0 0 1 2 3 7 17 28 29 22 19 24 35 43 36 21 8 3 2 1 0 0 0 0 0 0 0 0 0 1 0 0 0 0 0 0 0 0 0 0 0 0
0 1 1 1 0 0 0 0 0 1 3 6 12 26 41 42 35 34 38 47 51 42 25 11 5 2 0 0 1 0 0 1 0 0 0 0 0 0 0 0 0 0 0 0 0 0 1 1 0
0 0 0 0 0 0 0 0 0 1 4 13 27 43 52 50 45 43 44 51 54 45 31 20 13 6 2 3 3 1 0 0 0 0 0 0 0 0 0 0 0 0 0 0 0 1 2 2 1
0 0 0 0 0 0 0 0 0 2 6 20 40 56 57 53 49 44 43 49 52 45 35 30 26 19 14 11 7 3 1 1 0 1 1 1 1 1 1 1 0 0 0 0 0 1 2 2 2
0 0 0 0 0 0 0 0 1 3 8 23 43 55 55 51 47 42 42 49 52 46 42 42 43 39 33 25 14 7 5 4 3 2 2 2 2 3 3 2 1 0 0 0 0 1 1 2 3
0 0 0 0 0 0 0 0 2 6 13 26 41 48 48 46 45 44 45 50 52 49 48 52 55 53 48 39 26 15 12 11 9 5 2 3 5 6 6 5 4 2 2 1 1 0 1 2 3
0 0 0 0 0 0 0 0 2 8 17 27 38 42 41 43 48 52 55 54 52 52 55 58 59 58 54 44 32 23 18 17 14 10 6 5 8 11 9 7 6 5 4 4 3 2 1 2 2
0 0 0 0 0 0 0 0 3 11 18 25 33 38 41 44 49 56 63 61 55 55 59 60 58 58 53 42 33 26 20 18 21 21 15 12 13 14 10 6 5 5 5 6 6 4 3 2 2
0 0 0 0 0 0 0 1 5 11 15 21 28 37 44 47 48 57 65 64 58 60 64 61 59 57 52 43 36 30 27 28 33 34 26 19 18 15 10 8 7 7 7 7 7 6 4 3 3
0 0 0 0 0 0 0 2 7 10 11 15 23 37 50 52 53 61 66 63 60 65 69 67 65 63 57 50 44 40 42 46 45 41 34 26 20 15 12 13 12 10 9 9 9 9 8 6 4
0 0 0 0 0 0 1 4 8 8 9 11 21 38 53 58 63 67 67 64 66 72 74 73 73 72 66 59 54 51 53 54 49 43 38 29 20 13 11 15 16 12 10 11 12 12 10 6 3
0 0 0 0 0 0 1 3 5 7 9 12 23 39 52 61 68 72 70 69 71 76 78 77 77 76 72 65 60 57 57 54 48 44 41 31 20 12 10 14 18 14 12 13 12 11 9 5 3
0 0 0 0 0 0 0 1 3 5 8 12 23 37 50 62 70 75 76 75 76 80 82 80 79 77 72 67 63 60 58 54 49 48 46 35 24 17 13 18 20 18 17 14 10 9 8 6 4
0 0 0 0 0 0 0 1 3 4 6 12 20 33 46 60 72 80 81 80 81 82 83 81 79 76 72 68 62 58 57 52 50 53 48 37 28 22 22 25 25 22 19 15 11 10 9 7 6
0 0 0 0 0 0 0 1 3 5 7 11 18 27 40 54 70 82 84 82 81 81 80 80 80 76 70 65 59 54 51 47 48 50 45 35 26 22 25 29 29 24 20 17 13 10 9 8 7
0 0 0 0 0 0 0 0 2 4 7 10 15 22 32 46 64 78 83 81 79 78 77 78 79 75 66 59 56 52 46 43 45 46 42 32 22 17 20 26 27 24 21 19 17 15 11 8 6
0 0 0 0 0 0 0 0 1 3 5 7 11 16 25 39 55 70 78 80 78 76 74 75 77 74 64 57 54 51 46 45 46 46 41 31 20 14 15 19 24 24 22 23 25 23 15 8 6
0 0 0 0 0 0 0 1 3 3 3 4 8 13 20 32 46 61 72 79 80 78 75 74 74 71 64 57 54 52 48 48 47 43 37 28 18 15 17 20 24 25 23 26 29 26 16 8 7
0 0 0 0 0 0 1 2 4 4 3 3 7 12 17 26 40 54 67 76 79 79 76 73 71 69 64 58 56 55 52 48 45 41 36 28 19 19 25 29 28 27 24 25 27 24 16 9 7
0 0 0 0 0 0 1 2 4 5 4 3 6 10 14 22 35 49 60 68 73 74 72 69 68 67 64 60 56 54 53 50 46 42 38 32 25 24 32 36 33 28 25 24 23 20 15 11 9
0 0 0 0 0 0 0 2 6 8 6 3 5 8 13 21 32 43 51 58 63 65 66 65 65 64 62 59 54 52 54 53 48 43 40 37 33 34 39 41 37 31 27 24 22 18 15 12 10
0 0 0 0 0 0 1 2 6 8 6 4 7 11 14 22 32 39 43 47 52 57 59 61 62 60 58 55 52 51 53 52 47 42 41 42 43 43 46 45 39 32 27 24 19 15 13 12 11
0 0 0 0 0 0 1 2 4 5 4 6 10 14 18 24 34 40 40 42 46 51 56 59 59 57 55 53 51 50 50 49 47 42 42 46 48 47 47 45 40 32 25 22 18 13 11 12 12

GEFSSGP_con_prob3kmehi_198.txt.gz
EHI
0 0 0 0 0 0 0 0 0 0 0 1 1 1 0 0 0 0 0 4 9 8 4 2 2 2 1 0 1 2 2 2 1 0 1 2 3 2 1 0 1 0 0 0 0 0 0 0 0
0 0 0 0 0 0 0 0 1 1 1 1 1 1 0 0 1 0 1 6 12 10 4 2 3 2 1 1 0 1 1 1 0 0 0 1 2 2 1 1 1 0 0 0 0 0 0 0 0
0 0 0 0 0 0 0 0 2 3 2 1 0 0 0 1 3 3 4 10 13 10 3 2 4 4 2 1 0 0 0 0 0 0 0 0 1 1 1 1 1 0 0 0 0 0 0 0 0
0 0 0 0 0 0 0 1 4 5 4 3 2 1 0 3 7 7 7 12 14 10 4 3 6 6 3 1 0 0 0 0 0 0 0 0 0 0 0 0 0 0 0 0 0 0 0 0 0
0 0 0 0 0 0 0 2 7 10 10 9 7 3 3 8 13 13 10 13 16 12 6 6 9 9 5 2 0 0 0 0 0 0 0 0 0 0 0 0 0 0 0 0 0 0 0 0 0
0 0 0 0 0 0 0 3 9 15 15 12 8 5 8 15 19 16 12 13 15 13 8 7 9 9 7 3 1 0 0 0 0 0 0 0 0 0 0 0 0 0 0 0 0 0 1 1 1
0 0 0 0 0 0 0 3 9 15 13 8 6 6 12 22 25 20 16 14 14 13 11 8 7 7 6 3 1 0 0 0 0 0 0 0 0 0 0 0 0 0 0 0 0 0 1 1 0
0 0 0 0 1 1 2 5 9 12 11 6 4 7 17 29 34 28 21 18 16 14 12 10 7 4 2 1 0 0 0 1 0 0 0 0 0 0 0 0 0 0 1 1 1 0 0 0 0
0 0 0 0 1 2 5 8 10 13 15 15 12 15 28 41 45 37 27 21 17 15 13 12 9 4 1 0 0 0 0 0 0 0 0 0 0 0 0 0 0 0 1 1 1 1 1 0 0
0 0 0 0 0 2 6 9 11 16 24 28 29 33 42 52 54 46 33 22 17 14 13 12 9 5 1 0 0 0 0 0 0 0 0 0 0 0 0 0 0 0 0 0 1 1 1 0 0
0 0 0 0 0 1 5 7 10 17 25 32 42 48 51 55 57 49 36 24 16 11 10 10 8 5 2 0 0 0 0 0 0 0 0 0 0 0 0 0 0 0 0 0 0 1 1 0 0
0 0 0 0 0 1 4 6 9 14 20 31 44 49 50 52 53 48 40 29 18 9 7 7 6 5 3 1 0 0 0 0 0 0 0 0 0 0 0 0 0 0 0 0 0 0 0 0 0
0 0 0 0 0 2 5 7 10 14 22 32 40 43 45 48 50 49 46 37 25 15 9 7 7 5 3 1 1 1 0 0 0 0 0 0 0 0 0 0 0 0 0 0 0 0 0 0 0
0 0 0 0 1 3 7 9 13 20 29 34 35 36 41 47 49 51 50 44 36 29 21 15 13 9 6 4 4 3 1 1 0 0 0 0 0 0 0 0 0 0 0 0 0 0 0 0 0
0 0 0 0 1 3 7 10 14 23 32 34 33 33 39 46 50 51 51 48 46 43 37 31 27 22 15 11 8 5 3 2 1 0 0 0 0 0 0 0 0 0 0 0 0 0 0 0 0
0 0 0 0 0 2 5 8 14 22 29 33 34 34 38 44 49 53 55 55 53 51 48 45 41 36 29 21 13 8 5 4 2 1 1 1 1 1 0 0 0 0 0 0 0 0 0 0 0
0 0 0 0 0 1 3 8 15 22 29 35 41 42 41 43 49 57 63 62 58 56 53 50 48 44 38 31 21 12 7 5 3 3 2 2 2 1 0 0 0 0 0 0 0 0 0 0 0
0 0 0 0 0 1 3 8 15 25 32 40 48 51 48 47 53 62 66 65 61 59 57 53 49 45 41 36 28 18 11 6 4 3 3 3 3 2 1 1 0 0 0 0 0 0 0 0 0
0 0 0 0 0 0 4 9 16 25 34 43 51 56 55 55 59 65 69 67 64 64 63 58 52 46 41 36 31 24 15 9 6 6 5 5 6 6 4 2 1 0 0 0 0 0 0 0 0
0 0 0 0 1 1 5 10 15 21 30 39 48 56 60 63 65 68 72 72 69 69 68 64 58 51 42 33 27 23 16 11 10 10 8 7 8 9 7 3 1 0 0 0 0 0 0 0 0
0 0 0 0 1 2 4 6 10 15 21 30 41 51 58 64 68 71 74 74 73 72 71 68 62 54 44 32 25 23 19 14 14 13 11 8 8 8 7 4 2 1 0 0 0 0 0 0 0
0 0 0 0 1 1 1 2 4 10 15 22 33 45 52 59 67 73 75 76 75 73 71 67 62 55 47 37 30 27 22 16 13 12 10 8 7 7 6 4 3 2 1 0 0 0 0 0 0
0 0 0 0 0 0 0 0 1 6 12 17 26 39 48 54 63 71 76 77 75 73 71 67 61 55 49 42 34 28 22 16 11 10 10 8 7 6 6 4 3 3 2 1 0 0 0 0 0
0 0 0 0 0 0 0 0 0 3 8 13 20 33 44 52 59 65 73 76 74 73 74 70 63 57 51 44 35 26 20 15 12 12 11 9 7 7 6 5 4 3 3 1 0 0 0 0 0
0 0 0 0 0 0 0 0 0 2 6 11 17 28 41 52 57 62 70 73 72 72 73 70 64 58 53 47 38 28 19 15 13 13 13 12 10 8 7 6 5 4 3 2 1 0 0 0 0
0 0 0 0 0 0 0 0 1 3 7 12 19 28 40 51 59 64 66 66 67 68 68 66 62 58 55 50 43 32 21 15 13 12 13 14 13 11 8 8 7 6 5 4 2 0 0 0 0
0 0 0 0 0 0 0 0 2 4 7 13 21 29 37 47 58 64 62 59 61 63 62 61 59 57 55 52 46 37 26 19 15 13 14 14 14 12 9 8 7 7 6 5 3 1 1 0 0
0 0 0 0 0 0 0 0 2 5 7 11 18 24 30 40 50 56 56 54 55 57 58 58 57 55 52 51 46 37 29 24 20 16 14 14 13 12 10 8 7 7 7 4 2 2 2 1 0
0 0 0 0 0 0 0 0 1 5 7 9 14 19 24 32 42 48 50 50 49 50 52 55 55 52 49 48 44 37 31 26 21 18 15 13 13 11 10 10 9 7 5 3 1 1 2 2 1
0 0 0 0 0 0 0 0 1 3 5 8 13 17 22 30 38 44 48 49 47 46 48 51 53 50 46 45 43 37 31 26 22 18 15 12 13 12 10 10 10 7 5 3 2 1 2 3 3

GEFSSGP_con_prob3kmehi_204.txt.gz
EHI
1 1 0 0 0 0 0 0 0 0 0 1 2 2 1 0 0 0 0 0 1 2 1 2 3 3 3 3 3 4 5 5 3 1 0 0 0 0 0 0 1 2 2 1 0 0 0 0 0
1 0 0 0 0 0 0 0 0 0 0 2 3 4 2 1 0 0 0 0 1 1 1 1 3 3 3 2 2 2 3 3 2 1 0 0 0 0 0 1 1 1 1 0 0 0 0 0 0
0 0 0 0 0 0 0 0 0 0 0 2 4 4 3 1 0 0 1 2 1 1 0 1 2 3 2 2 2 1 1 1 1 1 0 0 0 1 1 1 0 0 0 0 0 0 0 0 0
0 0 0 0 0 0 0 0 0 0 1 2 3 3 2 1 0 1 2 3 3 2 1 1 2 2 1 1 1 1 0 0 1 1 1 0 0 1 1 1 0 0 0 0 0 0 0 0 0
0 0 0 0 0 0 0 0 0 1 1 3 4 4 3 1 1 2 3 3 3 3 2 1 2 2 2 1 0 0 0 0 1 1 1 0 0 0 0 0 0 0 0 0 0 0 0 0 0
0 0 0 0 0 0 1 1 2 2 3 4 7 6 4 1 2 3 3 3 3 3 2 1 2 3 2 1 0 0 0 0 0 0 0 0 0 0 0 0 0 0 0 0 0 0 0 0 0
0 0 0 0 0 0 1 2 3 3 4 6 9 9 5 2 1 3 3 3 3 3 2 1 2 3 3 1 0 0 0 0 0 0 0 0 0 0 0 0 0 0 0 0 0 0 0 0 0
0 0 0 0 0 0 1 2 3 4 5 5 7 8 7 5 4 4 3 2 2 2 2 1 1 2 2 1 0 0 0 0 0 0 0 0 0 0 0 0 0 0 0 0 0 0 0 0 0
0 0 0 0 0 1 2 3 4 5 5 5 6 9 13 15 12 9 5 2 1 1 1 0 1 1 1 0 0 0 0 0 0 0 0 0 0 0 0 0 0 0 0 0 0 0 0 0 0
0 0 0 0 0 1 2 4 5 6 6 7 11 19 27 26 19 12 6 1 0 1 0 0 0 0 0 0 0 0 0 0 0 0 0 0 0 0 0 0 0 0 0 0 0 0 0 0 0
0 0 0 0 0 0 1 3 4 5 6 11 23 37 39 30 18 10 5 2 0 0 0 0 0 0 0 0 0 0 0 0 0 0 0 0 0 0 0 0 0 0 0 0 0 0 0 0 0
0 0 0 0 0 0 1 2 2 3 5 15 35 49 43 27 14 7 3 1 0 0 0 0 0 0 0 0 0 0 0 0 0 0 0 0 0 0 0 0 0 0 0 0 0 0 0 0 0
0 0 0 0 0 1 2 1 1 3 8 24 43 50 39 22 11 6 3 2 1 1 0 0 0 0 0 0 0 0 0 0 0 0 0 0 0 0 0 0 0 0 0 0 0 0 0 0 0
0 0 0 0 0 1 2 2 1 6 18 36 47 45 33 19 10 6 5 5 3 2 1 0 0 0 0 0 0 0 0 0 0 0 0 0 0 0 0 0 0 0 0 0 0 0 0 0 0
0 0 0 0 0 1 2 1 2 11 27 41 45 40 30 19 11 9 9 7 4 3 2 1 1 0 0 0 0 0 0 0 0 0 0 0 0 0 0 0 0 0 0 0 0 0 0 0 0
0 0 0 0 0 1 1 1 4 16 31 38 39 36 30 21 15 13 12 8 5 4 4 3 2 1 0 0 0 0 0 0 0 0 0 0 0 0 0 0 0 0 0 0 0 0 0 0 0
0 0 0 0 0 0 0 0 5 19 32 35 32 30 28 23 17 14 13 11 8 6 6 6 4 2 1 0 0 0 0 0 0 0 0 0 0 0 0 0 0 0 0 0 0 0 0 0 0
0 0 0 0 0 0 0 1 6 18 28 31 28 26 27 24 18 13 13 14 11 9 10 10 7 5 3 2 2 1 1 0 0 0 0 1 1 1 0 0 0 0 0 0 0 0 0 0 0
0 0 0 0 0 0 0 1 6 14 21 25 26 26 26 24 19 16 19 21 20 16 16 15 12 10 9 7 5 4 2 1 1 1 1 2 2 2 1 0 0 0 0 0 0 0 0 0 0
0 0 0 1 1 0 0 1 4 10 15 19 21 21 23 23 22 24 29 34 32 27 24 22 19 16 15 12 8 5 3 2 2 2 3 3 3 3 1 1 0 0 0 0 0 0 0 0 0
0 0 0 1 1 0 0 1 3 6 9 12 13 13 17 23 29 35 42 47 45 37 33 31 27 23 19 16 11 7 5 4 4 4 3 3 3 3 3 2 1 0 0 0 0 0 0 0 0
0 0 0 1 1 0 0 0 1 3 5 7 9 10 14 23 32 42 49 54 54 47 41 39 35 29 23 19 17 14 9 6 5 5 4 3 3 3 3 4 3 2 0 0 0 0 0 0 0
0 0 0 0 0 0 0 0 0 1 3 6 9 11 14 20 29 41 49 53 54 52 47 42 38 33 27 24 23 20 15 9 6 5 5 4 3 3 3 4 5 3 1 0 0 0 0 0 0
0 0 0 0 0 0 0 0 0 0 1 4 7 10 15 19 27 37 44 48 50 51 48 45 40 34 29 26 26 24 20 14 7 5 5 5 4 3 4 5 6 4 2 1 0 0 0 0 0
0 0 0 0 0 0 0 0 0 0 0 1 3 9 15 22 28 33 39 43 46 48 50 49 43 36 30 28 28 26 22 16 10 5 4 4 3 3 4 6 6 5 3 1 0 0 0 0 0
0 0 0 0 0 0 0 0 0 1 1 1 2 6 15 24 28 30 34 38 41 44 48 50 44 37 32 31 30 28 24 18 12 7 5 4 4 4 4 5 6 5 4 2 0 0 0 0 0
0 0 0 0 0 1 1 1 1 2 2 2 3 6 13 22 27 28 28 32 36 38 41 44 42 38 35 32 30 28 25 20 15 10 7 6 6 5 5 6 6 6 5 3 1 0 0 0 0
0 0 0 0 0 1 2 1 1 1 1 2 3 5 10 17 23 25 24 26 29 30 32 35 38 39 38 33 30 27 24 21 16 12 8 7 6 6 6 6 6 6 5 3 2 1 0 0 0
0 0 0 0 0 0 1 1 0 0 0 1 3 4 8 13 18 20 20 20 22 24 26 29 32 36 38 35 29 25 21 18 15 13 10 7 7 6 6 6 6 6 5 3 2 1 0 0 0
0 0 0 0 0 0 0 0 0 0 0 1 3 5 8 12 16 16 17 18 18 20 24 26 28 33 37 34 27 22 18 15 14 14 11 8 7 6 6 6 6 5 5 4 1 0 0 0 0

GEFSSGP_con_prob3kmehi_210.txt.gz
EHI
2 2 1 1 1 1 0 0 0 0 0 0 0 0 0 0 0 0 0 0 0 1 2 2 3 3 3 3 1 0 0 0 0 0 0 0 1 0 0 0 0 0 0 0 0 0 0 0 0
1 1 0 0 0 0 0 0 0 0 0 0 0 0 0 0 0 0 0 0 0 0 1 2 3 3 3 3 2 0 0 0 0 0 0 0 1 0 0 0 0 0 0 0 0 0 0 0 0
0 0 0 0 0 0 0 0 0 1 1 0 0 0 0 0 0 0 0 0 0 0 1 2 3 3 3 3 2 0 0 0 0 0 0 0 0 0 0 0 0 0 0 0 0 0 0 0 0
0 0 0 0 0 0 0 0 0 1 2 1 0 0 1 1 0 0 0 0 0 0 1 2 2 2 3 3 1 0 0 0 0 0 0 0 0 0 0 0 0 0 0 0 0 0 0 0 0
0 0 0 0 0 0 0 0 0 1 2 1 0 1 2 3 2 1 1 1 0 0 0 1 1 1 1 1 0 0 0 0 0 0 0 0 0 0 0 0 0 0 0 0 0 0 0 0 0
0 0 0 0 0 0 0 0 0 1 2 1 0 1 3 5 4 3 2 1 0 0 0 0 0 0 0 0 0 0 0 0 0 0 0 0 0 0 0 0 0 0 0 0 0 0 0 0 0
0 0 0 0 0 0 0 0 0 2 3 2 1 1 4 6 6 4 2 1 0 1 1 1 1 0 0 0 0 0 0 0 0 0 0 0 0 0 0 0 0 0 0 0 0 0 0 0 0
0 0 0 0 0 0 0 0 0 1 3 3 1 1 6 10 8 4 1 0 1 2 2 2 1 0 0 0 0 0 0 0 0 0 0 0 0 0 0 0 0 0 0 0 0 0 0 1 1
0 0 0 0 0 0 0 0 0 1 3 3 2 4 12 19 13 5 2 1 1 2 2 1 1 0 0 0 0 0 0 0 0 0 0 0 0 0 0 0 0 0 0 0 0 0 1 2 2
0 0 0 0 0 0 0 0 0 1 3 4 5 12 24 26 18 8 4 2 1 1 1 0 0 0 0 0 0 0 0 0 0 0 0 0 0 0 0 0 0 0 0 0 1 1 2 3 3
0 0 0 0 0 0 0 0 0 0 2 3 10 24 33 29 20 11 6 3 1 1 1 0 0 0 0 0 0 0 0 0 0 0 0 0 0 0 0 0 0 0 0 0 1 2 3 3 3
0 0 0 0 0 0 0 0 0 0 0 3 14 31 35 27 19 12 6 4 3 2 2 1 0 0 0 0 0 0 0 0 0 0 0 0 0 0 0 0 0 0 0 1 1 3 3 3 3
0 0 0 0 0 0 0 0 0 0 1 4 16 28 28 22 16 11 7 5 4 3 3 1 0 0 0 0 0 0 0 0 0 0 0 0 0 0 0 0 0 0 1 2 3 3 3 3 3
0 0 0 0 0 0 0 0 0 0 2 6 14 20 19 15 12 11 8 6 4 3 3 2 1 0 0 0 0 0 0 0 0 0 0 0 0 0 0 0 0 0 1 2 3 3 3 3 2
0 0 0 0 0 0 0 0 0 1 3 6 9 12 13 12 11 11 10 8 5 4 4 3 2 1 1 1 1 0 0 0 0 0 0 0 0 0 0 0 0 0 0 1 1 2 2 2 1
0 0 0 0 0 0 0 0 0 1 4 7 8 9 11 12 11 10 9 8 6 6 7 6 4 4 4 3 2 1 1 1 1 1 1 0 0 0 0 0 0 0 0 0 0 1 1 1 0
0 0 0 0 0 0 0 0 0 0 3 7 8 9 11 11 11 10 9 9 9 10 12 11 9 7 6 4 3 3 3 3 3 3 2 1 0 0 0 0 0 0 0 0 0 0 0 0 0
0 0 0 0 0 0 0 0 1 0 1 4 7 11 12 10 9 11 11 11 12 14 16 17 15 12 9 6 5 5 5 6 5 5 5 3 2 1 0 0 0 0 0 0 0 0 0 0 0
0 0 0 0 0 0 0 0 0 0 0 2 6 12 15 12 12 15 16 17 18 19 21 22 21 19 15 11 9 8 8 8 8 8 7 6 5 3 1 0 0 0 0 0 0 0 0 0 0
0 0 0 0 0 0 0 0 0 1 1 2 5 11 16 19 24 28 30 28 27 28 28 28 27 26 22 18 16 13 11 11 10 8 7 6 6 5 2 1 1 1 2 2 1 1 1 1 0
0 0 0 0 0 0 0 0 0 1 2 2 5 10 16 24 32 40 44 42 39 37 36 33 32 30 27 24 21 18 15 12 9 7 6 6 7 6 4 2 2 2 3 4 3 3 4 3 1
0 0 0 0 0 0 0 0 0 1 1 2 6 11 18 24 32 41 48 49 46 43 39 35 34 32 29 25 24 21 17 13 9 7 6 5 6 5 4 3 4 4 4 4 4 4 5 4 2
0 0 0 0 0 0 0 0 0 0 0 1 5 12 18 22 27 35 42 44 44 43 40 37 36 35 30 27 26 23 19 14 11 9 9 9 7 5 4 5 7 6 5 5 6 6 6 5 3
0 0 0 0 0 0 0 0 0 0 0 1 5 11 16 18 22 29 34 37 40 42 42 43 44 41 36 32 29 25 21 17 15 14 14 13 10 7 6 7 10 11 10 9 10 9 7 6 5
0 0 0 0 0 0 0 0 0 0 0 2 6 10 13 14 18 24 31 37 42 46 49 51 52 50 46 39 33 29 24 19 17 16 15 14 11 10 9 10 14 16 14 13 13 12 10 9 9
0 0 0 0 0 0 0 0 0 0 0 2 6 10 11 13 16 21 29 39 46 50 53 55 56 56 53 46 38 33 27 19 15 14 13 12 11 12 12 14 16 17 15 15 15 14 12 12 12
0 0 0 0 0 0 0 0 0 0 1 4 9 13 13 12 14 19 28 38 46 50 52 53 53 55 53 46 40 33 26 21 17 14 12 12 12 14 16 18 17 17 18 18 18 17 15 14 13
0 0 0 0 0 0 0 0 0 1 4 10 14 16 15 13 15 21 30 37 43 47 51 50 47 47 46 42 36 28 24 24 22 19 15 15 15 16 19 20 19 20 22 22 21 19 16 16 16
0 0 0 0 0 0 0 0 1 3 8 14 17 17 15 14 19 26 32 36 39 44 51 51 45 42 41 39 32 27 25 25 25 21 17 16 16 16 17 18 19 22 24 25 22 18 15 16 18
0 0 0 0 0 0 0 1 2 5 10 14 17 17 15 16 22 29 34 37 39 44 51 54 48 43 42 39 32 28 27 27 25 21 16 15 16 14 13 14 17 23 25 25 21 16 14 16 18

GEFSSGP_con_prob3kmehi_216.txt.gz
EHI
3 5 9 12 6 1 0 0 0 0 0 1 1 0 0 0 0 0 2 4 4 2 1 1 0 0 0 0 0 0 0 0 0 0 0 0 0 0 0 0 0 0 0 0 0 0 0 0 0
3 4 7 7 4 0 0 0 0 0 1 1 1 0 0 0 0 0 3 6 5 3 2 1 1 0 0 0 0 0 0 0 0 0 0 0 0 0 0 0 0 0 0 0 0 0 0 0 0
4 4 5 4 1 0 1 1 1 1 1 1 1 0 0 0 0 1 3 6 6 5 3 2 1 0 0 0 0 0 0 0 0 0 0 0 0 0 0 0 0 0 0 0 0 0 0 0 0
3 3 3 2 0 0 1 1 1 0 0 0 1 1 1 1 0 1 3 6 8 7 5 2 1 0 0 0 0 0 0 0 0 0 0 0 0 0 0 0 0 0 0 0 0 0 0 0 0
1 1 1 0 0 0 0 0 0 0 0 0 0 1 2 2 1 1 3 7 10 10 6 3 2 1 0 0 0 0 0 0 0 0 0 0 0 0 0 0 0 0 0 0 0 0 0 0 0
0 0 0 0 0 0 0 0 0 0 0 0 0 2 3 3 3 3 4 8 13 11 6 2 2 1 0 0 0 0 0 0 0 0 0 0 0 0 0 0 0 0 0 0 0 0 0 0 0
0 0 0 0 0 0 0 0 0 0 0 0 1 3 5 5 5 5 7 11 14 12 5 1 1 1 1 0 0 0 0 0 0 0 0 0 0 0 0 0 0 0 0 0 0 0 0 0 0
0 0 0 0 0 0 0 0 0 0 0 0 2 5 8 8 6 6 8 13 15 12 6 2 0 1 1 0 0 1 1 0 0 0 0 0 0 0 0 0 0 0 0 0 0 0 0 0 0
0 0 0 0 0 0 0 0 0 0 0 1 4 9 12 11 8 7 8 11 12 12 9 3 0 1 1 0 0 1 1 0 0 0 0 0 0 0 0 1 1 0 0 0 1 1 1 1 1
0 0 0 0 0 0 0 0 0 0 1 5 10 16 17 14 12 9 7 7 8 10 10 6 3 1 0 0 0 1 1 1 1 1 1 1 0 0 1 2 2 1 1 1 2 3 2 2 2
0 0 0 0 0 0 0 0 0 1 4 10 18 23 21 16 13 11 9 8 8 9 10 10 8 4 3 2 1 2 3 2 2 3 1 0 0 1 4 4 3 2 2 2 3 3 2 2 1
0 0 0 0 0 0 0 0 1 2 7 14 21 23 19 14 11 11 11 12 15 14 13 15 16 14 12 7 4 3 4 4 5 5 2 0 0 2 5 7 4 1 1 1 1 1 1 1 0
0 0 0 0 0 0 0 0 1 3 8 15 19 17 14 11 11 12 14 18 23 24 22 24 27 26 21 12 6 5 5 6 7 6 3 1 1 3 7 8 5 1 0 0 1 1 0 0 1
0 0 0 0 0 0 0 0 1 5 9 14 16 14 12 13 14 16 21 26 32 33 34 35 34 30 22 12 7 7 7 8 8 9 7 5 4 6 8 7 4 1 0 1 2 2 1 1 1
0 0 0 0 0 0 0 0 3 9 12 13 16 16 15 17 19 22 28 36 39 40 43 41 35 29 20 10 7 6 7 8 11 14 14 9 7 8 6 5 3 2 1 1 2 2 2 1 1
0 0 0 0 0 0 0 1 6 12 14 14 15 17 19 21 23 27 33 40 44 47 50 44 37 31 22 12 7 6 8 10 13 17 18 15 12 10 7 5 4 3 2 2 2 2 2 1 1
0 0 0 0 0 0 0 2 7 12 14 15 16 19 24 27 29 34 38 41 48 57 58 51 45 41 30 18 11 10 13 14 14 16 19 20 18 13 10 6 5 4 4 4 4 4 3 2 2
0 0 0 0 0 0 0 3 8 11 13 16 19 23 31 36 38 43 46 47 55 65 66 60 56 53 42 28 20 18 20 20 17 17 23 25 21 17 12 9 7 7 8 7 7 6 5 4 3
0 0 0 0 0 0 0 3 8 11 12 16 20 27 37 43 48 54 56 57 63 72 74 69 65 62 53 41 33 29 26 27 24 24 29 29 23 18 13 11 13 13 12 12 11 10 8 5 4
0 0 0 0 0 0 0 2 7 9 11 14 21 30 40 48 56 64 67 68 72 78 80 77 73 69 61 52 45 39 35 32 29 32 38 36 28 21 18 18 20 18 15 15 16 17 13 8 7
0 0 0 0 0 0 1 3 5 6 8 12 19 28 39 48 61 73 78 77 78 82 83 81 79 76 69 61 52 47 43 37 32 37 44 42 34 27 26 27 25 20 16 17 20 23 19 12 10
0 0 0 0 0 0 1 2 3 4 6 9 13 22 32 44 61 77 83 83 81 83 85 85 85 82 77 68 59 53 49 43 39 41 45 44 36 31 32 34 33 25 20 21 25 25 22 16 11
0 0 0 0 0 0 0 1 1 3 6 7 9 16 27 40 59 75 82 83 82 81 84 88 89 87 83 75 67 60 53 47 43 44 45 44 37 32 33 38 38 33 27 28 30 29 26 21 16
0 0 0 0 0 0 0 0 0 2 3 4 6 14 25 38 54 69 77 82 83 82 83 88 91 89 86 80 74 67 58 49 44 43 44 42 36 34 35 38 41 38 32 31 33 31 28 24 20
0 0 0 0 0 0 0 0 1 1 1 2 6 13 23 34 46 59 71 79 83 85 86 88 90 89 85 82 77 71 62 52 45 43 42 38 34 37 41 42 43 40 33 31 33 31 27 23 21
0 0 0 0 0 0 0 0 1 1 1 2 7 13 22 30 39 52 66 77 82 85 87 88 90 89 85 80 76 71 64 54 47 45 42 37 35 40 47 50 47 43 36 32 33 31 27 25 24
0 0 0 0 0 0 0 1 1 2 3 4 9 15 22 27 33 47 64 74 80 83 84 86 88 88 84 78 75 70 64 55 48 45 43 39 37 41 48 51 49 46 40 37 35 32 29 28 29
0 0 0 0 0 0 0 1 3 6 7 7 11 18 23 25 29 43 61 71 77 81 82 83 84 83 80 75 70 67 64 57 50 46 44 43 41 41 42 44 43 42 42 40 35 32 30 29 29
0 0 0 0 0 0 0 1 4 8 10 11 14 19 23 24 29 42 57 68 74 77 78 81 81 79 75 71 66 63 62 59 54 49 47 47 44 41 38 35 33 34 37 38 34 29 28 27 28
0 0 0 0 0 0 1 3 5 8 11 12 15 20 24 25 31 43 56 68 73 75 75 79 80 78 74 69 65 61 59 58 55 51 49 47 44 41 37 33 29 29 34 35 32 27 24 25 27

GEFSSGP_con_prob3kmehi_222.txt.gz
EHI
1 1 0 0 0 0 0 0 0 0 0 0 0 0 0 0 0 0 0 0 1 1 1 0 0 0 0 1 2 4 3 1 0 0 0 0 0 0 0 0 0 0 0 0 0 0 0 0 0
1 0 0 0 0 0 0 0 1 1 0 0 0 0 0 0 0 0 0 0 0 0 0 0 0 0 0 0 1 1 1 0 0 0 0 0 0 0 0 0 0 0 0 0 0 0 0 0 0
0 0 0 0 0 0 0 1 3 3 1 1 1 1 0 0 1 0 0 0 0 0 0 0 0 0 0 0 0 0 0 0 0 0 0 0 0 0 0 0 0 0 0 0 0 0 0 0 0
0 0 0 0 0 0 0 2 4 4 1 1 2 1 0 1 2 2 1 0 0 0 0 0 0 0 0 0 1 0 0 0 0 0 0 0 0 0 0 0 0 0 0 0 0 0 0 0 0
0 0 0 0 0 0 1 2 4 4 2 1 1 1 1 3 6 6 2 0 0 0 0 0 0 0 0 0 0 0 0 0 0 0 0 0 0 0 0 0 0 0 0 0 0 0 0 0 0
0 0 0 0 0 0 1 2 4 4 3 2 1 0 2 7 11 9 4 1 1 1 1 0 0 0 0 0 0 0 0 0 0 0 0 0 0 0 0 0 0 0 0 0 0 0 0 0 0
0 0 0 0 0 0 0 1 3 3 3 2 1 0 2 8 13 11 6 3 3 3 2 0 0 0 0 0 0 0 0 0 0 0 0 0 0 0 0 1 1 1 0 0 0 0 0 0 1
0 0 0 0 0 0 1 2 2 3 2 1 1 1 5 13 17 14 8 4 4 4 1 0 0 0 0 0 0 0 0 0 0 0 0 0 0 0 0 1 2 2 1 1 0 0 0 0 1
0 0 0 0 0 0 2 4 5 7 6 4 3 6 13 23 26 20 12 6 4 3 1 0 0 0 0 0 0 0 0 0 0 0 0 0 0 0 0 1 2 2 2 2 1 1 1 1 1
0 0 0 0 0 0 1 4 8 11 11 10 11 15 21 29 32 26 16 9 5 3 1 0 0 0 0 0 0 0 0 0 0 0 0 0 0 0 0 0 1 1 1 2 2 2 2 1 1
0 0 0 0 0 0 1 2 6 10 11 14 19 21 23 28 29 25 19 13 8 3 1 0 0 0 0 0 0 0 0 0 0 0 0 0 0 0 0 0 0 0 0 1 1 1 1 1 0
0 0 0 0 0 2 3 5 5 7 9 15 21 22 22 23 22 19 17 14 10 5 2 1 1 0 0 0 0 0 0 0 0 0 0 0 0 0 0 0 0 0 0 0 0 0 0 0 0
0 0 0 0 2 6 9 9 8 9 14 18 20 21 20 17 14 12 14 16 14 10 8 6 4 3 2 2 1 1 1 1 0 0 0 0 0 0 0 0 0 0 0 0 0 0 0 0 0
0 0 0 1 4 9 11 11 11 14 19 20 19 19 17 14 11 12 16 21 21 19 18 17 14 9 6 4 3 3 3 2 2 1 1 0 0 0 0 0 0 0 0 0 0 0 0 0 0
0 0 0 1 3 6 8 11 14 17 20 20 19 17 15 12 13 16 21 26 30 30 30 30 26 17 9 7 6 6 5 3 3 2 1 0 0 0 0 0 0 0 0 0 0 0 0 0 0
0 0 0 0 1 2 5 9 14 19 21 21 20 19 16 14 15 20 26 33 38 39 39 38 33 22 13 9 9 9 6 4 3 3 1 1 0 0 0 0 0 0 0 0 0 0 0 0 0
0 0 0 0 0 0 2 7 15 20 22 24 24 23 20 19 21 26 34 42 45 44 43 42 36 28 19 12 9 8 6 4 3 2 2 1 0 0 0 0 0 0 0 0 0 0 0 0 0
0 0 0 0 0 0 1 7 16 21 23 25 27 26 25 26 29 36 43 48 48 46 45 43 38 33 25 16 10 7 5 3 2 1 1 1 1 0 0 0 0 0 0 0 0 0 0 0 0
0 0 0 0 0 1 3 9 17 22 22 24 27 27 28 30 35 43 49 51 49 47 46 44 41 37 30 22 14 7 4 2 1 1 1 1 1 1 1 0 0 0 0 0 0 0 0 0 0
0 0 0 0 1 2 4 8 15 19 20 22 27 30 30 31 38 48 52 52 50 48 48 47 45 40 34 27 20 12 6 3 1 0 0 1 1 2 2 1 0 0 0 0 0 0 0 0 0
0 0 0 0 1 2 4 5 9 13 17 21 27 31 31 32 42 51 54 53 52 50 49 48 46 43 38 33 29 22 12 6 3 1 1 1 1 3 5 4 2 1 1 1 1 0 1 1 0
0 0 0 0 1 1 2 2 4 8 13 18 24 30 31 34 43 53 55 56 55 53 51 48 48 47 45 41 37 28 18 10 6 3 3 3 3 4 7 7 5 4 4 3 3 2 3 2 1
0 0 0 0 0 0 0 0 2 5 10 14 19 25 32 36 41 49 55 58 58 56 54 51 51 52 51 47 39 28 19 13 9 6 5 5 5 6 7 7 7 7 7 6 5 5 5 4 3
0 0 0 0 0 0 0 0 1 3 7 10 13 20 30 36 37 42 51 58 61 60 58 57 56 55 54 49 40 29 21 16 12 9 7 7 8 7 7 6 7 9 9 8 6 6 5 5 4
0 0 0 0 0 0 0 0 0 1 3 7 10 15 25 33 36 39 48 57 62 63 63 63 62 59 56 52 43 33 24 18 15 12 10 9 9 8 6 6 7 10 10 8 6 5 4 4 4
0 0 0 0 0 0 0 0 0 0 1 5 9 15 21 30 37 43 50 56 60 63 66 67 67 64 60 56 48 38 28 22 17 12 10 9 8 7 6 6 7 8 8 7 5 5 4 3 3
0 0 0 0 0 0 0 0 0 1 2 5 11 16 20 29 42 49 52 54 57 61 65 68 67 64 61 58 53 43 33 26 18 12 9 8 7 8 8 8 7 6 6 5 5 6 5 4 3
0 0 0 0 0 0 0 0 1 4 6 8 12 15 19 31 45 54 56 55 56 59 64 65 64 62 60 58 55 47 37 27 19 13 10 9 9 10 11 10 8 8 7 6 6 6 5 4 3
0 0 0 0 0 0 0 1 2 4 8 10 11 13 18 30 44 55 59 59 57 57 60 60 60 60 60 58 55 48 36 25 18 14 11 11 11 11 12 12 11 10 10 8 7 6 4 4 3
0 0 0 0 0 0 0 1 2 4 7 10 10 13 19 29 40 52 59 60 58 56 56 57 57 59 60 58 55 47 35 24 19 15 11 11 12 12 13 13 12 12 10 8 7 6 5 4 3